{"data":{"norad_id":51130,"epoch":"2026-05-25T04:29:17.913696Z","epoch_age_seconds":72949,"freshness":"FRESH","line1":"1 51130U 22005AC  26145.18701289  .00000390  00000+0  42613-4 0  9994","line2":"2 51130  53.2130 315.7113 0001361  89.1876 270.9271 15.08835265240273","mean_motion":15.08835265,"eccentricity":0.0001361,"inclination_deg":53.213,"raan_deg":315.7113,"arg_perigee_deg":89.1876,"mean_anomaly_deg":270.9271,"bstar":4.2613e-5,"rev_number":24027,"period_min":95.437854178203,"perigee_km":538.81633651197,"apogee_km":540.69938749341,"semimajor_km":6917.8948620027,"source":"CELESTRAK","updated_at":"2026-05-25T13:38:16.911821Z"}}